Vorticity
nan nan nan nan nan nan nan nan nan nan nan nan nan nan nan nan nan nan nan nan nan nan nan nan nan nan nan nan nan nan nan nan nan nan nan nan nan nan nan nan nan nan nan
nan 10 11 11 11 11 12 13 14 19 15 10 13 13 11 11 12 11 12 11 10 10 12 8 9 12 8 7 7 10 12 10 13 9 7 11 10 9 9 8 9 10 nan
nan 10 10 10 11 11 12 14 20 21 14 12 13 11 10 9 10 10 10 12 11 8 9 11 12 9 10 11 9 9 9 9 10 11 10 8 8 9 11 10 8 9 nan
nan 9 11 11 11 11 11 11 14 17 15 14 14 11 9 10 10 9 10 9 10 11 8 10 11 11 8 6 9 9 9 10 10 9 10 10 9 8 9 9 10 8 nan
nan 10 12 12 9 10 11 11 11 13 13 16 17 13 11 10 8 7 9 10 9 11 10 9 11 10 8 2 3 7 8 9 9 9 9 9 10 11 10 8 8 8 nan
nan 10 11 11 12 9 9 11 11 11 13 13 17 17 15 16 8 11 9 9 10 9 12 11 9 11 14 13 10 15 11 7 8 8 7 10 10 9 11 12 10 10 nan
nan 9 11 11 11 10 9 8 10 11 13 12 11 13 12 26 34 22 23 17 9 9 9 9 11 15 12 17 17 18 13 14 19 18 14 12 12 13 11 11 12 13 nan
nan 8 10 12 11 11 11 9 9 8 11 13 9 13 13 9 23 31 36 27 18 18 15 15 18 19 23 19 14 9 11 15 20 23 25 21 21 19 13 12 10 9 nan
nan 10 9 11 10 11 11 12 10 9 9 9 10 9 15 8 11 20 18 15 15 15 17 19 25 21 26 20 12 11 13 14 19 19 14 16 13 11 12 7 8 10 nan
nan 13 10 9 10 11 11 12 11 10 10 10 10 4 9 11 3 17 23 14 10 8 8 8 12 17 11 15 17 12 11 11 9 6 5 5 6 3 6 12 13 10 nan
nan 11 9 8 11 10 12 11 12 11 9 10 9 10 5 7 4 7 22 26 15 11 9 8 4 12 9 10 14 17 14 10 9 11 11 7 6 5 5 10 12 12 nan
nan 10 12 10 8 10 11 12 11 11 10 10 10 10 8 2 2 7 12 19 21 14 12 17 16 8 6 6 10 13 10 11 10 10 10 11 10 9 11 9 9 12 nan
nan 11 13 12 7 8 11 12 12 11 10 10 12 12 12 11 -3 -3 3 4 14 15 11 9 10 8 11 8 7 3 6 10 10 9 9 9 10 11 10 8 8 7 nan
nan 11 12 11 11 9 8 9 11 12 13 10 9 12 13 13 13 10 6 -0 2 12 11 5 0 2 4 6 3 6 10 10 10 9 9 9 9 9 9 9 9 9 nan
nan 11 12 11 10 12 10 8 9 12 19 19 16 13 11 15 16 20 21 18 11 12 10 9 5 5 4 6 8 10 10 11 10 11 11 11 11 10 9 11 10 12 nan
nan 11 11 12 11 12 11 5 3 8 13 17 23 22 16 12 15 13 14 17 17 13 13 9 9 10 10 10 10 10 10 10 11 12 11 11 11 11 11 12 11 11 nan
nan 13 11 11 12 11 11 11 6 0 -0 3 7 13 19 12 10 9 7 5 7 10 12 10 10 10 10 11 11 10 10 9 11 10 10 10 10 10 10 11 11 10 nan
nan 12 17 11 11 11 10 11 11 11 6 -1 -0 3 4 10 10 9 9 8 4 8 12 10 10 11 11 11 11 11 10 12 11 11 10 11 11 10 9 10 11 13 nan
nan 11 13 12 10 10 11 11 11 11 11 11 5 1 1 3 3 4 11 13 10 9 10 10 10 11 11 11 11 11 12 12 11 11 11 12 12 11 10 10 11 11 nan
nan 9 19 15 11 10 11 11 11 11 10 10 11 12 13 5 4 5 7 11 10 10 10 10 11 11 11 10 11 11 11 10 11 11 11 10 11 11 10 11 11 9 nan
nan 6 10 16 12 12 11 10 11 11 11 10 7 7 17 15 9 10 10 11 11 11 11 11 11 11 10 11 10 11 11 11 11 11 11 11 11 11 11 11 11 11 nan
nan 12 10 11 11 12 12 11 11 10 11 11 9 4 7 14 11 10 10 10 11 12 12 11 11 11 10 10 11 11 11 11 11 11 12 12 11 11 11 11 10 11 nan
nan 12 12 12 11 11 12 12 12 11 11 11 12 9 7 10 10 10 10 10 11 11 12 11 11 12 12 12 12 11 11 11 12 12 11 11 11 11 11 11 11 12 nan
nan 12 12 12 12 10 11 11 11 11 12 11 11 11 10 10 10 10 11 11 11 11 12 11 10 11 13 13 13 14 13 14 14 13 11 12 12 12 12 12 11 13 nan
nan 12 12 12 12 11 11 11 11 10 11 11 11 11 11 11 11 11 11 12 11 10 11 12 11 10 11 13 14 13 13 17 17 15 12 11 11 12 13 12 12 12 nan
nan nan nan nan nan nan nan nan nan nan nan nan nan nan nan nan nan nan nan nan nan nan nan nan nan nan nan nan nan nan nan nan nan nan nan nan nan nan nan nan nan nan nan
CAPE
7 18 23 23 21 16 12 10 7 8 4 1 8 14 17 19 17 8 7 7 2 2 0 0 0 0 0 0 0 0 0 9 14 0 0 0 0 0 0 0 0 0 0
14 16 25 19 14 8 4 8 6 4 2 5 10 10 9 12 16 9 3 25 4 6 14 22 9 12 2 0 10 6 3 0 3 1 0 0 0 0 0 0 0 0 1
13 6 17 17 11 12 11 7 1 1 5 7 14 7 9 9 11 12 18 8 2 6 3 10 8 13 12 3 2 0 0 0 0 0 0 0 0 0 0 0 0 0 2
4 0 4 13 16 8 8 8 4 8 13 11 13 1 4 12 1 11 9 9 14 11 6 3 3 4 0 0 4 0 0 0 0 2 4 0 0 0 0 0 0 0 1
2 0 0 5 16 5 6 9 7 5 7 7 10 7 9 9 6 7 1 9 2 1 0 2 3 0 27 5 0 0 0 0 0 0 0 0 0 0 0 0 0 0 0
3 0 0 2 1 11 4 6 9 6 4 8 5 11 11 9 15 49 4 0 0 5 0 0 2 28 7 63 61 75 10 0 0 0 0 0 0 0 0 0 0 0 0
2 0 0 0 0 2 7 3 5 5 4 1 15 12 11 7 14 10 30 0 5 13 0 8 14 22 27 4 12 1 1 2 2 13 0 0 0 0 0 0 0 0 0
0 0 0 0 0 0 8 8 1 0 2 3 19 19 13 28 36 29 19 5 4 9 17 18 20 9 8 0 0 1 2 1 0 1 0 0 0 0 0 0 0 0 0
0 0 0 0 0 0 0 1 0 0 0 0 1 25 29 36 66 46 13 3 4 7 8 5 3 6 33 25 3 5 2 4 29 27 25 35 39 23 5 0 0 0 0
0 0 0 0 0 0 0 0 0 0 0 0 0 2 54 28 70 62 11 3 2 7 9 18 57 29 55 31 0 0 0 0 0 0 0 5 23 34 32 2 0 0 0
0 0 0 0 0 0 0 0 0 0 0 0 0 0 0 21 13 39 35 8 8 9 12 20 47 78 73 54 31 2 4 2 11 0 0 0 1 1 2 3 2 0 0
0 0 0 0 0 0 0 0 0 0 0 0 0 0 0 0 36 30 29 21 0 1 4 16 37 50 44 51 36 57 35 8 1 0 0 0 0 0 0 0 0 0 0
0 0 0 0 0 0 0 0 0 0 0 0 0 0 0 0 0 22 30 31 45 2 7 25 28 29 27 23 30 20 1 0 0 0 0 0 0 0 0 0 0 0 0
0 0 0 0 0 0 0 0 1 0 0 0 0 0 0 2 0 0 0 0 0 0 0 0 6 9 8 0 0 0 0 0 0 0 0 0 0 0 0 0 0 0 0
0 0 0 0 0 0 0 0 0 9 9 0 0 0 3 9 10 12 2 0 0 0 0 0 0 0 0 0 0 0 0 0 0 0 0 0 0 0 0 0 0 0 0
0 0 0 0 0 0 0 0 0 9 16 31 20 3 3 19 19 17 14 11 5 0 0 0 0 0 0 0 0 0 0 0 0 0 0 0 0 0 0 0 0 0 0
0 0 0 0 0 0 0 0 0 0 0 10 10 17 18 10 7 7 5 6 2 0 0 0 0 0 0 0 0 0 0 0 0 0 0 0 0 0 0 0 0 0 0
0 0 0 0 0 0 0 0 0 0 0 0 0 1 10 8 3 1 0 0 0 0 0 0 0 0 0 0 0 0 0 0 0 0 0 0 0 0 0 0 0 0 0
0 0 0 0 0 0 0 0 0 0 0 0 0 0 0 0 0 1 0 0 0 0 0 0 0 0 0 0 0 0 0 0 0 0 0 0 0 0 0 0 0 0 0
0 0 0 0 0 0 0 0 0 0 0 0 0 0 0 0 0 0 0 0 0 0 0 0 0 0 0 0 0 0 0 0 0 0 0 0 0 0 0 0 0 0 0
0 0 0 0 0 0 0 0 0 0 0 0 0 0 0 0 0 0 0 0 0 0 0 0 0 0 0 0 0 0 0 0 0 0 0 0 0 0 0 0 0 0 0
0 0 0 0 0 0 0 0 0 0 0 0 0 0 0 0 0 0 0 0 0 0 0 0 0 0 0 0 0 0 0 0 0 0 0 0 0 0 0 0 0 0 0
0 0 0 0 0 0 0 0 0 0 0 0 0 0 0 0 0 0 0 0 0 0 0 0 0 0 0 0 0 0 0 0 0 0 0 0 0 0 0 0 0 0 0
0 0 0 0 0 0 0 0 0 0 0 0 0 0 0 0 0 0 0 0 0 0 0 0 0 0 0 0 0 0 0 0 0 0 0 0 0 0 0 0 0 0 0
0 0 0 0 0 0 0 0 0 0 0 0 0 0 0 0 0 0 0 0 0 0 0 0 0 0 0 0 0 0 0 0 0 0 0 0 0 0 0 0 0 0 0
0 0 0 0 0 0 0 0 0 0 0 0 0 0 0 0 0 0 0 0 0 0 0 0 0 0 0 0 0 0 0 0 0 0 0 0 0 0 0 0 0 0 0